CST,Max TemperatureF,Mean TemperatureF,Min TemperatureF,Max Dew PointF,MeanDew PointF,Min DewpointF,Max Humidity, Mean Humidity, Min Humidity, Max Sea Level PressureIn, Mean Sea Level PressureIn, Min Sea Level PressureIn, Max VisibilityMiles, Mean VisibilityMiles, Min VisibilityMiles, Max Wind SpeedMPH, Mean Wind SpeedMPH, Max Gust SpeedMPH,PrecipitationIn, CloudCover, Events, WindDirDegrees
2012-12-1,72,54,36,29,25,21,55,37,18,29.97,29.84,29.73,10,10,10,23,9,29,0.00,0,,281
2012-12-2,70,53,35,28,24,18,64,42,20,30.03,29.86,29.64,10,10,10,24,8,31,0.00,0,,203
2012-12-3,69,58,46,31,24,15,30,25,20,30.11,29.85,29.59,10,10,10,31,17,39,0.00,2,,331
2012-12-4,60,47,34,30,23,15,64,43,21,30.35,30.26,30.07,10,10,10,13,6,16,T,1,Rain,239
2012-12-5,65,49,33,27,22,16,47,36,25,30.23,30.02,29.75,10,10,10,25,14,30,0.00,0,,186
2012-12-6,62,50,37,34,26,18,64,49,34,29.94,29.82,29.68,10,10,10,28,13,33,0.00,0,,354
2012-12-7,59,43,26,26,21,16,61,46,30,29.95,29.87,29.74,10,10,10,12,5,14,0.00,0,,339
2012-12-8,47,35,23,36,29,19,92,76,60,29.96,29.80,29.66,10,9,2,21,9,26,0.00,3,,178
2012-12-9,35,26,16,34,15,2,96,65,33,30.29,30.06,29.78,10,9,2,26,17,35,0.00,7,,356
2012-12-10,44,25,5,9,3,-6,76,46,15,30.29,30.09,29.94,10,10,10,20,9,25,0.00,0,,245
2012-12-11,45,32,19,16,10,6,57,42,27,30.14,30.06,29.98,10,10,10,10,5,15,0.00,2,,244
2012-12-12,60,39,18,15,11,6,62,39,16,30.03,29.95,29.87,10,10,10,17,9,21,0.00,0,,193
2012-12-13,70,49,27,16,13,10,41,26,11,30.01,29.94,29.86,10,10,10,18,9,26,0.00,0,,222
2012-12-14,58,45,32,50,38,15,92,66,40,29.91,29.65,29.43,10,9,1,33,12,41,0.70,6,Rain-Thunderstorm,199
2012-12-15,60,46,32,32,29,26,82,55,27,29.73,29.66,29.49,10,10,10,29,8,37,0.00,0,,253
2012-12-16,40,35,29,34,30,26,96,83,70,29.87,29.72,29.62,10,10,6,21,8,26,0.00,3,,314
2012-12-17,55,40,24,31,25,20,92,59,26,29.88,29.78,29.66,10,10,10,20,9,23,0.00,0,,231
2012-12-18,55,40,25,23,19,13,75,47,19,29.83,29.74,29.64,10,10,10,17,7,21,0.00,0,,140
2012-12-19,63,45,26,30,24,14,81,54,27,30.09,29.69,29.41,10,8,2,46,21,58,T,5,Snow,304
2012-12-20,49,33,17,11,7,3,61,39,17,30.40,30.32,30.16,10,10,10,28,11,35,0.00,0,,278
2012-12-21,62,40,18,17,10,4,74,44,13,30.35,30.20,30.08,10,10,10,14,7,17,0.00,0,,212
2012-12-22,58,40,22,24,14,2,59,39,19,30.06,29.98,29.88,10,10,10,20,6,24,0.00,0,,319
2012-12-23,56,37,18,20,15,10,73,46,19,30.03,29.95,29.84,10,10,10,20,5,25,0.00,0,,300
2012-12-24,45,33,21,19,16,12,69,53,36,30.00,29.90,29.76,10,10,10,21,10,28,0.00,0,,99
2012-12-25,21,16,11,13,11,5,84,76,67,30.39,30.17,29.87,10,6,2,30,18,36,0.01,7,Snow,5
2012-12-26,29,18,7,18,10,2,83,72,60,30.33,30.12,29.87,10,10,10,18,9,23,0.00,2,,180
2012-12-27,29,22,15,17,14,9,80,71,62,30.02,29.84,29.70,10,10,10,18,11,22,0.00,0,,343
2012-12-28,39,27,15,16,14,10,80,59,37,30.23,30.09,30.01,10,10,10,23,9,28,0.00,3,,333
2012-12-29,46,31,16,17,14,9,71,48,25,30.37,30.27,30.18,10,10,10,20,11,24,0.00,0,,226
2012-12-30,46,37,27,26,18,16,68,51,34,30.13,30.03,29.94,10,10,10,29,17,36,T,1,Rain,186
2012-12-31,36,28,20,32,23,16,96,85,74,30.18,29.97,29.88,10,6,1,26,13,32,0.26,8,Rain-Snow,328